![]() |
EMODnet Physics ERDDAP
Easier access to scientific data |
log in|
Brought to you by EMODnet Physics |
| Dataset Title: | NDBC - Collection of dew point temperature (DEWT) TimeSeries - IN SITU MultiPointTimeSeriesObservation
|
| Institution: | NDBC (Dataset ID: TS_DEWT_NDBC) |
| Information: | Summary
| License
| FGDC
| ISO 19115
| Metadata
| Background
| Subset
| Data Access Form
| Make a graph
|
| Name | Last modified | Size | Description | |
|---|---|---|---|---|
| Parent Directory | - | - | ||
| KEXA2_TS_DEWT_012018.nc | 27-Oct-2024 11:42 | 429351 | ||
| KEXA2_TS_DEWT_012020.nc | 27-Oct-2024 11:42 | 429361 | ||
| KEXA2_TS_DEWT_012021.nc | 27-Oct-2024 11:42 | 429353 | ||
| KEXA2_TS_DEWT_012022.nc | 27-Oct-2024 11:42 | 429357 | ||
| KEXA2_TS_DEWT_012023.nc | 27-Oct-2024 11:42 | 429558 | ||
| KEXA2_TS_DEWT_012024.nc | 27-Oct-2024 11:42 | 429565 | ||
| KEXA2_TS_DEWT_022018.nc | 27-Oct-2024 11:42 | 429445 | ||
| KEXA2_TS_DEWT_022019.nc | 27-Oct-2024 11:42 | 429564 | ||
| KEXA2_TS_DEWT_022020.nc | 27-Oct-2024 11:42 | 429563 | ||
| KEXA2_TS_DEWT_022021.nc | 27-Oct-2024 11:42 | 429561 | ||
| KEXA2_TS_DEWT_022022.nc | 27-Oct-2024 11:42 | 429559 | ||
| KEXA2_TS_DEWT_022023.nc | 27-Oct-2024 11:42 | 429563 | ||
| KEXA2_TS_DEWT_022024.nc | 16-Sep-2024 16:51 | 429564 | ||
| KEXA2_TS_DEWT_022026.nc | 01-Mar-2026 14:40 | 429558 | ||
| KEXA2_TS_DEWT_032018.nc | 27-Oct-2024 11:42 | 429561 | ||
| KEXA2_TS_DEWT_032019.nc | 27-Oct-2024 11:42 | 429559 | ||
| KEXA2_TS_DEWT_032020.nc | 27-Oct-2024 11:42 | 429560 | ||
| KEXA2_TS_DEWT_032021.nc | 27-Oct-2024 11:42 | 429565 | ||
| KEXA2_TS_DEWT_032022.nc | 27-Oct-2024 11:42 | 994814 | ||
| KEXA2_TS_DEWT_032023.nc | 27-Oct-2024 11:42 | 994796 | ||
| KEXA2_TS_DEWT_032026.nc | 21-Mar-2026 17:00 | 994789 | ||
| KEXA2_TS_DEWT_042018.nc | 27-Oct-2024 11:43 | 994795 | ||
| KEXA2_TS_DEWT_042019.nc | 27-Oct-2024 11:43 | 4871213 | ||
| KEXA2_TS_DEWT_042020.nc | 27-Oct-2024 11:43 | 429677 | ||
| KEXA2_TS_DEWT_042021.nc | 27-Oct-2024 11:43 | 421326 | ||
| KEXA2_TS_DEWT_042022.nc | 27-Oct-2024 11:43 | 423935 | ||
| KEXA2_TS_DEWT_042023.nc | 27-Oct-2024 11:43 | 429685 | ||
| KEXA2_TS_DEWT_052020.nc | 27-Oct-2024 11:43 | 429680 | ||
| KEXA2_TS_DEWT_052021.nc | 27-Oct-2024 11:43 | 423150 | ||
| KEXA2_TS_DEWT_052022.nc | 27-Oct-2024 11:43 | 429606 | ||
| KEXA2_TS_DEWT_052023.nc | 27-Oct-2024 11:43 | 429680 | ||
| KEXA2_TS_DEWT_062018.nc | 27-Oct-2024 11:43 | 429660 | ||
| KEXA2_TS_DEWT_062020.nc | 27-Oct-2024 11:43 | 429679 | ||
| KEXA2_TS_DEWT_062021.nc | 27-Oct-2024 11:43 | 419310 | ||
| KEXA2_TS_DEWT_062022.nc | 27-Oct-2024 11:44 | 429690 | ||
| KEXA2_TS_DEWT_062023.nc | 27-Oct-2024 11:44 | 429680 | ||
| KEXA2_TS_DEWT_072018.nc | 27-Oct-2024 11:44 | 429691 | ||
| KEXA2_TS_DEWT_072019.nc | 27-Oct-2024 11:44 | 429448 | ||
| KEXA2_TS_DEWT_072020.nc | 27-Oct-2024 11:44 | 429684 | ||
| KEXA2_TS_DEWT_072021.nc | 27-Oct-2024 11:44 | 429901 | ||
| KEXA2_TS_DEWT_072022.nc | 27-Oct-2024 11:44 | 429860 | ||
| KEXA2_TS_DEWT_072023.nc | 27-Oct-2024 11:44 | 429499 | ||
| KEXA2_TS_DEWT_082018.nc | 27-Oct-2024 11:44 | 429829 | ||
| KEXA2_TS_DEWT_082019.nc | 27-Oct-2024 11:44 | 429905 | ||
| KEXA2_TS_DEWT_082020.nc | 27-Oct-2024 11:44 | 429904 | ||
| KEXA2_TS_DEWT_082021.nc | 27-Oct-2024 11:44 | 429904 | ||
| KEXA2_TS_DEWT_082022.nc | 27-Oct-2024 11:44 | 429907 | ||
| KEXA2_TS_DEWT_082023.nc | 27-Oct-2024 11:44 | 429901 | ||
| KEXA2_TS_DEWT_092018.nc | 27-Oct-2024 11:44 | 429907 | ||
| KEXA2_TS_DEWT_092019.nc | 27-Oct-2024 11:44 | 429907 | ||
| KEXA2_TS_DEWT_092020.nc | 27-Oct-2024 11:45 | 420632 | ||
| KEXA2_TS_DEWT_092021.nc | 27-Oct-2024 11:45 | 429909 | ||
| KEXA2_TS_DEWT_092022.nc | 27-Oct-2024 11:45 | 429914 | ||
| KEXA2_TS_DEWT_092023.nc | 27-Oct-2024 11:45 | 429900 | ||
| KEXA2_TS_DEWT_102018.nc | 27-Oct-2024 11:45 | 1142974 | ||
| KEXA2_TS_DEWT_102019.nc | 27-Oct-2024 11:45 | 1143057 | ||
| KEXA2_TS_DEWT_102020.nc | 27-Oct-2024 11:45 | 1143266 | ||
| KEXA2_TS_DEWT_102021.nc | 27-Oct-2024 11:45 | 1143263 | ||
| KEXA2_TS_DEWT_102022.nc | 27-Oct-2024 11:45 | 493943 | ||
| KEXA2_TS_DEWT_102023.nc | 27-Oct-2024 11:45 | 5895589 | ||
| KEXA2_TS_DEWT_112018.nc | 27-Oct-2024 11:45 | 429058 | ||
| KEXA2_TS_DEWT_112019.nc | 27-Oct-2024 11:45 | 429339 | ||
| KEXA2_TS_DEWT_112020.nc | 27-Oct-2024 11:45 | 427961 | ||
| KEXA2_TS_DEWT_112021.nc | 27-Oct-2024 11:45 | 429361 | ||
| KEXA2_TS_DEWT_112022.nc | 27-Oct-2024 11:45 | 429355 | ||
| KEXA2_TS_DEWT_112023.nc | 27-Oct-2024 11:45 | 429355 | ||
| KEXA2_TS_DEWT_122017.nc | 27-Oct-2024 11:45 | 429362 | ||
| KEXA2_TS_DEWT_122018.nc | 27-Oct-2024 11:45 | 429357 | ||
| KEXA2_TS_DEWT_122019.nc | 27-Oct-2024 11:45 | 429341 | ||
| KEXA2_TS_DEWT_122020.nc | 27-Oct-2024 11:46 | 429357 | ||
| KEXA2_TS_DEWT_122021.nc | 27-Oct-2024 11:46 | 429332 | ||
| KEXA2_TS_DEWT_122022.nc | 27-Oct-2024 11:46 | 429363 | ||
| KEXA2_TS_DEWT_122023.nc | 27-Oct-2024 11:46 | 429356 | ||